Location: Shenandoah County Park
(38.9356°N, 78.4524°W)
Time: 06:44:53
(UTC-04:00)

Explorer 11/Cluster Stage 4 - Pass Details

Date: 23 February 2024
Orbit: 465 x 1220 km, 28.8° (Epoch: 12 April)

Event Time Altitude Azimuth Distance (km) Brightness Sun altitude
Rises 23:44:39 0° 206° (SSW) 4,111 - -59.2°
Reaches altitude 10° 23:49:05 10° 184° (S) 3,158 - -59.5°
Maximum altitude 23:53:09 15° 154° (SSE) 2,771 - -59.7°
Drops below altitude 10° 23:57:08 10° 122° (ESE) 3,065 - -60.0°
Sets 00:01:17 0° 101° (E) 3,920 - -60.1°
